EHI
16 20 22 19 14 13 14 14 13 11 8 6 5 4 3 2 1 1 1 0 0 0 0 0 0 0 0 0 0 0 0 0 0 0 0 0 0 0 0 0 0 0 0
24 24 23 19 15 14 14 14 14 13 10 7 5 4 3 1 0 0 0 0 0 0 0 0 0 0 0 0 0 0 0 0 0 0 0 0 0 0 0 0 0 0 0
30 27 24 21 17 14 13 12 13 13 11 8 6 5 3 1 0 0 0 0 0 1 1 1 1 0 0 0 0 0 0 0 0 0 0 0 0 0 0 0 0 0 0
29 28 25 23 20 16 14 12 11 11 10 7 5 4 3 2 1 0 1 1 1 1 2 2 1 0 0 0 0 0 0 0 0 0 0 0 0 0 0 0 0 0 0
26 26 25 25 23 20 18 15 13 12 10 8 6 5 5 4 2 2 2 1 1 1 1 1 1 0 0 0 0 0 0 0 0 0 0 0 0 0 0 0 0 0 0
25 26 26 26 25 23 21 19 16 13 11 9 8 8 7 5 3 2 2 1 0 0 0 0 0 0 0 0 0 0 0 0 0 0 0 0 0 0 0 0 0 0 0
26 27 27 26 27 26 24 20 17 14 11 10 9 8 7 3 1 2 1 0 0 0 0 0 0 0 0 0 0 0 0 0 0 0 0 0 0 0 0 0 0 0 0
27 29 28 26 26 27 25 20 15 12 10 9 7 6 4 2 0 0 0 0 0 0 0 0 0 0 0 0 0 0 0 0 0 0 0 0 0 0 0 0 0 0 0
29 30 29 24 21 22 22 19 15 12 10 8 6 5 3 1 0 0 0 0 0 0 0 0 0 0 0 0 0 0 0 0 0 0 0 0 0 0 0 0 0 0 0
30 31 30 24 18 16 16 15 13 12 9 6 5 4 2 1 0 0 0 0 0 0 0 0 0 0 0 0 0 0 0 0 0 0 0 0 0 0 0 0 0 0 0
30 31 31 26 20 16 13 12 12 10 6 4 2 2 1 0 0 0 0 0 0 0 0 0 0 0 0 0 0 0 0 0 0 0 0 0 0 0 0 0 0 0 0
27 28 29 27 23 18 14 13 11 9 6 2 1 1 1 1 1 0 0 0 0 0 0 0 0 0 0 0 0 0 0 0 0 0 0 0 0 0 0 0 0 0 0
24 25 25 24 22 19 16 14 13 12 9 5 3 3 3 2 2 1 0 0 0 0 0 0 0 0 0 0 0 0 0 0 0 0 0 0 0 0 0 0 0 0 0
24 23 21 20 18 17 16 15 15 14 12 9 6 3 2 2 2 1 0 0 0 0 0 0 0 0 0 0 0 0 0 0 0 0 0 0 0 0 0 0 0 0 0
22 20 17 16 16 17 17 17 15 14 13 10 6 2 1 1 1 0 0 0 0 0 0 0 0 0 0 0 0 0 0 0 0 0 0 0 0 0 0 0 0 0 0
16 15 14 14 15 17 18 16 14 14 13 9 4 1 0 0 0 0 0 0 0 0 0 0 0 0 0 0 0 0 0 0 0 0 0 0 0 0 0 0 0 0 0
9 11 12 12 13 15 15 15 14 15 12 8 3 1 0 0 0 0 0 0 0 0 0 0 0 0 0 0 0 0 0 0 0 0 0 0 0 0 0 0 0 0 0
6 7 9 10 11 13 13 14 15 13 10 6 3 2 1 0 0 0 0 0 0 0 0 0 0 0 0 0 0 0 0 0 0 0 0 0 0 0 0 0 0 0 0
5 6 7 9 10 11 11 12 12 11 9 6 4 3 1 0 0 0 0 0 0 0 0 0 0 0 0 0 0 0 0 0 0 0 0 0 0 0 0 0 0 0 0
4 5 7 9 10 9 8 7 8 8 7 6 5 4 2 1 0 0 0 0 0 0 0 0 0 0 0 0 0 0 0 0 0 0 0 0 0 0 0 0 0 0 0
4 5 7 8 8 7 5 4 6 6 5 5 5 4 2 1 0 0 0 0 0 0 0 0 0 0 0 0 0 0 0 0 0 0 0 0 0 0 0 0 0 0 0
3 4 6 7 6 5 4 4 4 4 3 3 4 3 1 0 0 0 0 0 0 0 0 0 0 0 0 0 0 0 0 0 0 0 0 0 0 0 0 0 0 0 0
2 3 4 5 5 5 4 4 2 1 1 1 2 2 1 0 0 0 0 0 0 0 0 0 0 0 0 0 0 0 0 0 0 0 0 0 0 0 0 0 0 0 0
1 3 4 4 5 5 5 3 1 0 0 0 1 1 1 0 0 0 0 0 0 0 0 0 0 0 0 0 0 0 0 0 0 0 0 0 0 0 0 0 0 0 0
1 2 3 3 3 3 3 2 1 0 0 0 0 0 0 0 0 0 0 0 0 0 0 0 0 0 0 0 0 0 0 0 0 0 0 0 0 0 0 0 0 0 0
0 1 1 1 1 1 1 1 0 0 0 0 0 0 0 0 0 0 0 0 0 0 0 0 0 0 0 0 0 0 0 0 0 0 0 0 0 0 0 0 0 0 0
Wind_Speed
9 12 13 12 14 14 14 14 14 14 14 14 14 14 14 13 13 13 13 13 13 13 14 14 14 14 14 14 14 14 13 13 13 13 13 13 13 13 13 11 9 10 13
13 13 14 13 14 14 14 14 14 14 14 13 13 13 13 13 13 13 13 13 13 13 13 13 13 13 13 13 13 12 12 12 12 11 10 11 12 12 13 12 11 10 12
14 14 15 13 14 14 14 14 14 14 13 13 13 13 13 13 13 13 13 13 13 13 13 13 13 13 13 12 12 12 12 11 10 8 6 7 10 12 12 12 11 11 11
14 13 14 14 14 13 14 14 14 14 13 13 12 12 13 13 13 13 13 13 13 12 12 12 12 12 12 12 11 11 11 10 8 5 5 7 8 11 11 10 10 10 10
13 13 14 14 14 14 14 14 14 13 13 13 13 12 12 12 12 12 12 12 12 12 12 12 11 11 11 11 11 11 10 9 6 5 7 7 7 10 10 10 10 10 10
13 13 14 13 14 14 14 13 13 13 13 12 12 12 12 12 12 12 12 11 12 11 11 11 11 11 10 10 10 10 9 7 4 7 7 7 7 9 9 9 9 9 9
13 13 14 13 13 13 13 13 13 12 12 12 12 12 12 12 12 11 11 11 11 11 11 11 10 10 10 10 9 9 8 5 5 6 6 7 8 9 9 8 8 7 7
12 12 13 13 12 12 12 12 12 12 12 12 12 12 11 11 11 11 11 11 11 10 10 10 10 10 10 9 9 8 6 3 5 5 6 6 8 8 7 7 7 7 6
12 11 12 12 12 11 11 11 11 11 11 11 11 11 10 10 11 11 10 10 10 10 10 10 10 9 9 9 8 8 6 4 4 4 5 5 7 7 6 7 6 6 6
10 10 11 11 11 11 11 11 10 10 10 10 10 10 10 10 10 9 9 9 9 9 9 9 9 9 9 8 8 6 4 1 4 4 4 5 6 6 6 6 6 6 6
9 9 9 10 10 10 10 10 10 10 10 10 9 10 8 7 8 7 8 8 8 8 8 8 8 8 7 7 7 4 1 2 4 3 4 6 5 5 5 5 5 5 6
10 9 8 9 9 9 8 8 7 7 8 7 7 8 5 5 5 6 8 8 7 7 7 7 7 6 3 4 4 2 1 2 2 3 4 7 5 5 5 5 5 5 6
10 8 8 8 9 8 6 6 5 4 5 6 7 6 5 4 4 4 4 5 5 5 4 5 4 2 2 2 1 1 2 2 2 2 4 6 5 5 5 5 6 6 6
9 8 8 8 8 8 7 5 5 4 4 4 5 6 5 3 3 3 2 3 3 2 2 2 1 2 2 2 1 1 1 1 1 2 4 6 5 5 5 6 6 6 7
8 8 8 8 8 7 6 5 4 4 4 5 4 4 5 4 4 3 3 2 2 2 2 1 1 2 1 1 1 1 1 1 1 1 2 5 5 5 6 6 6 6 6
7 7 7 7 7 7 6 5 4 4 4 4 4 4 4 3 3 3 3 2 2 2 1 1 1 1 1 1 0 0 0 0 0 1 1 2 4 5 6 6 6 6 6
7 7 7 7 7 7 6 5 4 4 4 4 4 4 4 4 4 3 3 2 2 1 2 1 2 1 1 1 1 0 0 0 0 0 0 1 1 3 5 6 6 7 7
6 7 6 6 7 7 6 5 4 4 4 3 3 4 4 4 4 3 2 2 2 2 1 1 1 1 1 1 1 0 0 0 0 0 0 1 1 2 3 5 6 7 7
6 6 6 6 7 6 6 5 4 4 3 3 3 3 3 4 4 3 2 2 2 2 1 1 1 1 1 0 0 0 1 1 1 1 0 1 1 1 2 3 4 6 7
5 5 6 6 6 6 5 4 4 4 3 2 2 2 4 3 4 3 2 3 2 2 1 1 1 1 0 0 0 0 1 1 1 1 0 0 0 1 2 3 2 2 5
5 5 6 6 6 5 4 4 4 3 3 3 2 3 3 3 3 3 2 2 2 2 2 2 1 1 0 0 1 1 1 1 1 1 1 1 0 1 2 2 2 3 2
6 6 6 6 6 6 5 4 3 3 2 2 2 3 3 3 3 3 3 2 2 2 2 2 1 1 0 1 2 2 2 3 2 2 1 1 2 1 2 3 3 3 3
5 5 5 6 6 6 6 4 4 3 3 2 3 2 2 3 3 3 3 2 2 2 2 2 2 2 1 1 1 2 2 2 1 2 2 2 2 2 2 2 3 3 4
3 4 5 6 6 6 7 6 7 5 4 3 3 3 3 3 3 3 3 3 2 2 2 2 2 1 2 1 1 1 2 3 3 2 2 2 2 3 3 2 3 3 4
2 2 4 5 6 6 6 7 6 5 3 3 3 4 4 3 3 3 3 3 2 2 2 2 2 2 2 2 1 1 1 2 3 4 4 3 3 3 3 3 3 3 3
1 2 3 5 5 6 6 7 6 6 6 6 5 5 3 3 2 3 3 2 2 2 2 2 1 2 1 1 1 1 2 2 2 3 4 4 4 3 3 3 3 3 3
Wind_Direction
153 148 140 140 137 132 129 128 127 126 124 122 120 117 116 113 110 106 103 102 100 99 98 95 94 92 89 86 85 83 81 78 76 75 74 72 72 70 66 58 61 68 63
147 147 140 139 137 135 130 127 125 124 123 123 121 118 116 115 112 109 106 103 101 100 98 96 94 91 88 86 85 84 83 80 78 77 79 81 73 69 68 61 55 61 62
146 146 144 139 138 136 132 128 126 123 123 123 122 120 118 115 113 111 107 104 101 99 96 94 92 90 88 86 85 84 82 80 78 76 79 79 78 70 69 66 63 64 62
147 148 146 139 138 137 134 131 129 126 123 122 122 121 120 117 115 111 108 105 103 100 98 95 93 92 90 89 87 84 82 79 74 67 69 67 72 70 66 65 63 61 59
149 148 139 140 138 137 135 132 129 127 125 123 121 121 121 119 116 113 110 107 104 102 100 98 97 96 94 91 90 86 83 81 76 71 70 70 70 69 64 65 62 60 57
150 148 141 143 140 139 136 135 132 129 127 126 122 120 120 120 116 113 111 109 106 106 105 101 100 98 97 94 92 88 85 82 85 72 68 66 68 69 65 65 61 57 54
151 148 145 143 140 138 138 136 134 131 129 128 124 122 120 117 116 115 113 111 108 107 107 105 102 99 97 95 93 89 83 71 70 73 69 66 63 62 59 58 55 51 48
150 148 144 139 136 137 137 136 133 132 130 128 125 123 122 119 116 114 114 113 110 109 108 106 102 98 94 93 92 89 79 61 82 74 70 68 62 58 54 51 48 44 42
151 149 147 149 144 137 133 133 131 131 129 127 125 122 119 117 116 114 112 112 111 110 108 106 103 100 95 92 90 86 75 44 65 69 67 64 60 55 52 48 43 40 36
153 152 152 154 153 151 145 133 130 128 126 123 120 117 115 115 114 112 112 107 108 109 108 106 105 101 96 91 88 86 78 88 70 69 64 66 57 55 53 46 39 36 31
157 155 156 155 155 153 150 141 136 129 125 127 123 119 130 132 127 123 106 103 104 106 107 105 104 101 102 100 90 85 102 67 69 58 58 56 52 51 47 39 32 29 25
164 161 159 157 155 153 149 149 150 147 145 148 144 143 141 133 122 117 104 99 100 102 108 104 106 119 133 118 115 149 86 69 63 64 59 47 38 37 35 30 23 22 22
165 161 160 158 157 155 152 154 152 148 150 151 150 147 140 132 129 129 128 121 119 121 119 122 140 132 115 98 95 84 58 52 59 62 59 42 28 23 24 24 21 21 23
166 165 161 157 157 157 154 155 154 154 155 152 154 154 151 143 141 137 135 131 132 129 127 133 131 126 122 118 107 89 83 62 57 60 59 42 27 20 17 18 19 19 19
169 166 162 160 158 155 152 153 154 155 155 151 152 159 159 154 149 144 141 137 134 130 139 143 149 141 138 114 100 84 77 72 63 63 79 57 29 17 15 15 15 14 17
168 166 164 162 158 150 149 152 153 152 149 149 152 157 160 157 154 154 149 144 137 141 137 152 151 158 151 145 138 73 30 42 44 48 61 83 58 30 22 17 15 16 13
170 164 165 161 158 152 149 150 146 150 151 152 152 154 156 154 158 160 155 150 143 149 151 149 146 165 148 159 173 184 298 334 330 95 51 11 59 61 33 19 17 13 9
171 168 165 160 159 155 151 149 139 145 148 149 150 151 155 158 164 160 153 152 147 152 162 152 162 166 170 188 203 198 223 215 223 1 12 32 15 23 50 36 18 11 7
171 169 166 163 161 156 150 144 138 136 139 145 150 151 155 156 162 162 154 147 153 156 164 154 162 186 180 270 337 316 287 251 202 185 147 57 30 3 357 47 29 12 2
165 166 166 163 160 150 146 141 135 131 134 139 143 147 154 156 161 160 150 147 151 154 152 157 145 142 147 274 302 325 303 260 221 210 228 159 29 360 348 347 343 6 1
165 164 165 164 162 157 158 161 157 152 147 140 137 141 151 150 150 150 147 148 156 162 163 174 161 150 131 231 244 244 229 222 230 221 256 263 327 345 338 337 333 330 334
174 170 168 166 168 168 169 164 154 145 137 135 139 140 149 146 145 148 154 160 160 161 162 170 175 192 168 250 282 274 254 217 203 233 247 271 295 309 322 329 331 329 327
179 178 175 174 168 167 159 144 134 129 126 138 150 152 156 149 148 147 154 157 170 181 181 187 197 207 210 214 293 287 280 280 292 209 227 249 280 294 305 319 322 325 324
188 180 175 174 166 162 161 165 166 170 167 175 166 154 150 145 140 146 152 157 163 174 184 191 205 223 220 216 223 287 301 312 284 273 228 237 275 280 290 302 305 311 318
183 181 176 169 168 164 169 173 171 168 156 147 148 146 144 138 138 140 148 155 156 159 175 187 193 205 223 231 231 239 252 268 270 274 275 274 270 265 280 289 292 302 314
164 185 177 170 169 169 172 177 176 166 155 155 162 158 150 140 139 140 144 148 152 151 162 178 187 188 211 232 243 248 261 264 269 269 277 285 281 275 275 270 273 292 307